Location: Bieg
(49.3499°N, 10.3835°E)
Time: 00:37:11
(UTC+00:00)

SJ 16-02 - Pass Details

Date: 23 May 2024
Orbit: 594 x 605 km, 75.0° (Epoch: 12 June)

Event Time Altitude Azimuth Distance (km) Brightness Sun altitude
Exits shadow 01:40:03 16° 183° (S) 1,585 2.9 -13.0°
Maximum altitude 01:43:23 59° 107° (ESE) 695 1.7 -12.7°
Drops below altitude 10° 01:47:38 10° 29° (NNE) 1,940 5.4 -12.3°
Sets 01:49:53 0° 25° (NNE) 2,847 6.6 -12.0°
